User: anonymous   Login
Location: Skalnate Pleso
(49.1889°N, 20.2450°E)
Time: 01:53:32
(UTC+01:00)
Language:

Iridium 45 - Orbit

View from above orbital plane
View from above orbital plane
View from above satellite
View from above satellite

Ground track
Ground track

The orbit data is extracted from the following two-line orbital elements,

1 25104U 97082A   14326.44269698  .00000416  00000-0  14167-3 0  9861
2 25104 087.0243 304.1587 0002662 109.3194 250.8291 14.34211605885969
Epoch (UTC): 22 November 2014 10:37:29
Eccentricity: 0.0002662
inclination: 87.0243°
perigee height: 776 km
apogee height: 779 km
right ascension of ascending node: 304.1587°
argument of perigee: 109.3194°
revolutions per day: 14.34211605
mean anomaly at epoch: 250.8291°
orbit number at epoch: 88596

The dashed part of the orbit path shows where the satellite is in the earth's shadow,  

DLR